Zurück zum Katalog

CZ-6A DEB

AktivPO
NORAD 68407·DEBRIS·🇨🇳 China

Gestartet Nov 11, 2022 von Taiyuan Satellite Launch Center

Loading…

Nächste Überflüge (nächste 24 Stunden)

TLE

AktuellSource: Space-Track

Epoche: Sep 14, 2026, 05:22 UTC

1 68407U 22151AJJ 26257.22396583  .00006585  00000-0  99712-3 0  9991
2 68407  98.7969 357.5499 0085383  33.7272 326.9325 14.72094524178125

Verfolge CZ-6A DEB in Echtzeit mit AllMySat

Download on the App Store